User: anonymous   Login
Location: Unspecified
(0.0000°N, 0.0000°E)
Time: 12:29:29
(UTC+00:00)
Language:

NANOACE - Orbit

View from above orbital plane
View from above orbital plane
View from above satellite
View from above satellite

Ground track
Ground track

The orbit data is extracted from the following two-line orbital elements,

1 42844U 17042V   18348.18609624  .00000390  00000-0  43844-4 0  9995
2 42844  97.5810 244.2220 0011444 316.6920  43.3399 14.91953260 77196
Epoch (UTC): 14 December 2018 04:27:58
Eccentricity: 0.0011444
inclination: 97.5810°
perigee height: 584 km
apogee height: 600 km
right ascension of ascending node: 244.2220°
argument of perigee: 316.6920°
revolutions per day: 14.91953260
mean anomaly at epoch: 43.3399°
orbit number at epoch: 7719

The dashed part of the orbit path shows where the satellite is in the earth's shadow,  

DLR